Weather in Rossosh

Russia / Voronezh Oblast     50°11′34″N   39°34′35″E
temp.,
°C
wind,
m/s
gust,
m/s
humid.,
%
clouds,
%
prec.,
mm/h
press.,
hPa
HPBL,
m
25 february, thu
thu2500:00−12ssw4894100 0.2 1037322
03:00−12ssw51094100 0.6 1035374
06:00−10ssw61190100 0.3 1033401
09:00−9sw6118399 0.3 1031412
12:00−5sw61192100 0.1 1029466
15:00−3sw71192100 0.1 1026410
18:00−2wsw81493100 0.1 1023427
21:00+1w71396100 0.3 1022438
26 february, fri
fri2600:00+2w61298100 0.5 1021325
03:00+2w61298100 1.1 1021356
06:00+2w41099100 0.0 1020248
09:00+2w49100100 0.0 1020220
12:00+3w51010099 0.0 1019355
15:00+3w61398100 0.0 1018409
18:00+3w61397100 0.0 1015420
21:00+3w51297100 0.1 1014359
27 february, sat
sat2700:00+2w61294100 0.0 1013359
03:00+2w51194100 0.0 1012458
06:00+1w51194100 0.0 1010433
09:00+2w51195100 0.3 1009474
12:00+2w61096100 0.1 1009674
15:00+3w6107997 0.2 1008981
18:00+1w51096100 0.2 1008539
21:00+1w51196100 0.3 1008520
28 february, sun
sun2800:00+1wnw61097100 0.1 1008545
03:000nw61093100 0.3 1010617
06:00−4nnw697999 0.2 1012804
09:00−6nnw687399 0.2 1014787
12:00−6nnw6869100 0.0 1016768
15:00−4nnw686897 0.0 1017796
18:00−5nnw5872100 0.0 1019763
21:00−6nnw587799 0.0 1021697
1 march, mon
mon100:00−6n577798 0.0 1023674
03:00−7nnw467999 0.0 1024626
06:00−7nnw478398 0.0 1026598
09:00−7n477894 0.0 1027600
12:00−5n5670100 0.0 1029664
15:00−3nnw476794 0.0 1029683
18:00−2nnw4571100 0.0 1030940
21:00−2nnw367098 0.0 1031867